When you browse on this site, cookies collect data to enhance your experience and personalize the content and advertising you see.
Visit our Privacy Policy to learn more. By continuing to use the site, you agree to this use of cookies and data.
  • In Romania
  • List of Countries
  • For 7 days
  • Water Temperature
  • Satellite Maps
  • Weather Map
  • Weather Widgets
  • user-avatar
    Login

    Hourly Weather Acerenza

    Today, 16 July, Tuesday

    Time Temperature Precipitation Wind Pressure Humidity
    00:00 +17°C° 0.3 mm 2 mps 696 mmHg 78%
    01:00 +17°C° 0.3 mm 2 mps 696 mmHg 84%
    02:00 +17°C° 0.9 mm 2 mps 696 mmHg 87%
    03:00 +16°C° 0.9 mm 2 mps 695 mmHg 90%
    04:00 +16°C° 0.9 mm 3 mps 695 mmHg 93%
    05:00 +16°C° 2.8 mm 3 mps 695 mmHg 94%
    06:00 +14°C° 2.8 mm 3 mps 695 mmHg 94%
    07:00 +14°C° 2.8 mm 3 mps 695 mmHg 95%
    08:00 +16°C° 1.5 mm 2 mps 695 mmHg 91%
    09:00 +17°C° 1.5 mm 2 mps 696 mmHg 86%
    10:00 +17°C° 1.5 mm 2 mps 697 mmHg 82%
    11:00 +18°C° 0.8 mm 3 mps 697 mmHg 80%
    12:00 +19°C° 0.8 mm 4 mps 697 mmHg 78%
    13:00 +19°C° 0.8 mm 4 mps 697 mmHg 76%
    14:00 +19°C° 0.9 mm 4 mps 697 mmHg 75%
    15:00 +20°C° 0.9 mm 4 mps 697 mmHg 74%
    16:00 +20°C° 0.9 mm 4 mps 697 mmHg 73%
    17:00 +19°C° 0.6 mm 4 mps 697 mmHg 75%
    18:00 +19°C° 0.6 mm 3 mps 697 mmHg 77%
    19:00 +18°C° 0.6 mm 2 mps 697 mmHg 79%
    20:00 +17°C° 0 mm 2 mps 697 mmHg 82%
    21:00 +16°C° 0 mm 2 mps 698 mmHg 85%
    22:00 +16°C° 0 mm 3 mps 698 mmHg 88%
    23:00 +15°C° 0 mm 2 mps 698 mmHg 88%

    Tomorrow, 17 July, Wednesday

    Time Temperature Precipitation Wind Pressure Humidity
    00:00 +15°C° 0 mm 2 mps 698 mmHg 88%
    01:00 +15°C° 0 mm 2 mps 698 mmHg 88%
    02:00 +15°C° 0 mm 2 mps 697 mmHg 86%
    03:00 +15°C° 0 mm 2 mps 697 mmHg 85%
    04:00 +13°C° 0 mm 3 mps 697 mmHg 83%
    05:00 +16°C° 0 mm 3 mps 698 mmHg 81%
    06:00 +17°C° 0 mm 3 mps 698 mmHg 79%
    07:00 +18°C° 0 mm 4 mps 699 mmHg 77%
    08:00 +20°C° 0 mm 4 mps 699 mmHg 70%
    09:00 +21°C° 0 mm 4 mps 700 mmHg 64%
    10:00 +22°C° 0 mm 4 mps 700 mmHg 57%
    11:00 +23°C° 0 mm 4 mps 700 mmHg 52%
    12:00 +25°C° 0 mm 4 mps 700 mmHg 46%
    13:00 +26°C° 0 mm 4 mps 700 mmHg 41%
    14:00 +26°C° 0 mm 4 mps 700 mmHg 40%
    15:00 +26°C° 0 mm 4 mps 700 mmHg 39%
    16:00 +26°C° 0 mm 4 mps 700 mmHg 39%
    17:00 +25°C° 0 mm 3 mps 699 mmHg 45%
    18:00 +23°C° 0 mm 2 mps 699 mmHg 52%
    19:00 +21°C° 0 mm 2 mps 699 mmHg 58%
    20:00 +21°C° 0 mm 1 mps 699 mmHg 61%
    21:00 +20°C° 0 mm 1 mps 699 mmHg 63%
    22:00 +18°C° 0 mm 1 mps 698 mmHg 65%
    23:00 +18°C° 0 mm 1 mps 698 mmHg 66%

    Day after tomorrow, 18 July, Thursday

    Time Temperature Precipitation Wind Pressure Humidity
    00:00 +18°C° 0 mm 1 mps 698 mmHg 66%
    01:00 +18°C° 0 mm 1 mps 698 mmHg 67%
    02:00 +16°C° 0 mm 1 mps 698 mmHg 67%
    03:00 +16°C° 0 mm 1 mps 698 mmHg 67%
    04:00 +16°C° 0 mm 1 mps 697 mmHg 67%
    05:00 +18°C° 0 mm 1 mps 698 mmHg 63%
    06:00 +20°C° 0 mm 1 mps 698 mmHg 58%
    07:00 +21°C° 0 mm 1 mps 698 mmHg 54%
    08:00 +23°C° 0 mm 1 mps 699 mmHg 48%
    09:00 +24°C° 0 mm 1 mps 700 mmHg 43%
    10:00 +26°C° 0 mm 1 mps 700 mmHg 38%
    11:00 +27°C° 0 mm 1 mps 700 mmHg 35%
    12:00 +28°C° 0 mm 2 mps 700 mmHg 33%
    13:00 +29°C° 0 mm 2 mps 700 mmHg 31%
    14:00 +29°C° 0 mm 2 mps 700 mmHg 33%
    15:00 +28°C° 0 mm 2 mps 700 mmHg 35%
    16:00 +28°C° 0 mm 2 mps 700 mmHg 36%
    17:00 +27°C° 0 mm 2 mps 700 mmHg 41%
    18:00 +25°C° 0 mm 1 mps 700 mmHg 46%
    19:00 +24°C° 0 mm 1 mps 699 mmHg 51%
    20:00 +23°C° 0 mm 1 mps 700 mmHg 56%
    21:00 +22°C° 0 mm 1 mps 700 mmHg 60%
    22:00 +20°C° 0 mm 1 mps 700 mmHg 65%
    23:00 +20°C° 0 mm 1 mps 700 mmHg 66%

    19 July, Friday

    Time Temperature Precipitation Wind Pressure Humidity
    00:00 +20°C° 0 mm 1 mps 700 mmHg 68%
    01:00 +19°C° 0 mm 1 mps 699 mmHg 69%
    02:00 +19°C° 0 mm 1 mps 699 mmHg 69%
    03:00 +19°C° 0 mm 1 mps 699 mmHg 69%
    04:00 +18°C° 0 mm 1 mps 699 mmHg 69%
    05:00 +20°C° 0 mm 1 mps 700 mmHg 64%
    06:00 +21°C° 0 mm 1 mps 700 mmHg 59%
    07:00 +23°C° 0 mm 1 mps 700 mmHg 54%
    08:00 +24°C° 0 mm 1 mps 701 mmHg 48%
    09:00 +26°C° 0 mm 1 mps 702 mmHg 43%
    10:00 +28°C° 0 mm 1 mps 702 mmHg 38%
    11:00 +29°C° 0 mm 1 mps 702 mmHg 37%
    12:00 +29°C° 0 mm 1 mps 702 mmHg 35%
    13:00 +30°C° 0 mm 2 mps 702 mmHg 33%
    14:00 +29°C° 0 mm 2 mps 702 mmHg 34%
    15:00 +29°C° 0 mm 2 mps 702 mmHg 35%
    16:00 +29°C° 0 mm 2 mps 702 mmHg 36%
    17:00 +28°C° 0 mm 2 mps 702 mmHg 40%
    18:00 +26°C° 0 mm 2 mps 702 mmHg 45%
    19:00 +25°C° 0 mm 2 mps 702 mmHg 50%
    20:00 +24°C° 0 mm 1 mps 702 mmHg 53%
    21:00 +23°C° 0 mm 1 mps 702 mmHg 57%
    22:00 +19°C° 0 mm 0 mps 702 mmHg 60%
    23:00 +19°C° 0 mm 0 mps 702 mmHg 61%

    20 July, Saturday

    Time Temperature Precipitation Wind Pressure Humidity
    00:00 +19°C° 0 mm 0 mps 702 mmHg 63%
    01:00 +20°C° 0 mm 1 mps 702 mmHg 64%
    02:00 +20°C° 0 mm 1 mps 702 mmHg 65%
    03:00 +20°C° 0 mm 1 mps 702 mmHg 65%
    04:00 +18°C° 0 mm 0 mps 702 mmHg 66%
    05:00 +19°C° 0 mm 0 mps 702 mmHg 61%
    06:00 +21°C° 0 mm 0 mps 703 mmHg 57%
    07:00 +22°C° 0 mm 0 mps 703 mmHg 53%
    08:00 +26°C° 0 mm 1 mps 704 mmHg 47%
    09:00 +27°C° 0 mm 1 mps 704 mmHg 42%
    10:00 +28°C° 0 mm 2 mps 705 mmHg 37%
    11:00 +29°C° 0 mm 2 mps 705 mmHg 34%
    12:00 +30°C° 0 mm 2 mps 705 mmHg 32%
    13:00 +31°C° 0 mm 2 mps 705 mmHg 30%
    14:00 +31°C° 0 mm 3 mps 705 mmHg 29%
    15:00 +31°C° 0 mm 3 mps 705 mmHg 29%
    16:00 +31°C° 0 mm 3 mps 705 mmHg 29%
    17:00 +29°C° 0 mm 3 mps 704 mmHg 34%
    18:00 +27°C° 0 mm 2 mps 704 mmHg 38%
    19:00 +25°C° 0 mm 2 mps 704 mmHg 43%
    20:00 +24°C° 0 mm 2 mps 704 mmHg 44%
    21:00 +23°C° 0 mm 1 mps 704 mmHg 46%
    22:00 +22°C° 0 mm 1 mps 704 mmHg 48%
    23:00 +22°C° 0 mm 1 mps 703 mmHg 49%

    21 July, Sunday

    Time Temperature Precipitation Wind Pressure Humidity
    00:00 +22°C° 0 mm 1 mps 703 mmHg 49%
    01:00 +21°C° 0 mm 1 mps 703 mmHg 50%
    02:00 +21°C° 0 mm 1 mps 703 mmHg 51%
    03:00 +21°C° 0 mm 1 mps 703 mmHg 51%
    04:00 +21°C° 0 mm 1 mps 702 mmHg 52%
    05:00 +22°C° 0 mm 1 mps 703 mmHg 49%
    06:00 +22°C° 0 mm 0 mps 703 mmHg 46%
    07:00 +23°C° 0 mm 0 mps 704 mmHg 44%
    08:00 +27°C° 0 mm 1 mps 704 mmHg 40%
    09:00 +29°C° 0 mm 1 mps 705 mmHg 37%
    10:00 +30°C° 0 mm 1 mps 705 mmHg 33%
    11:00 +31°C° 0 mm 2 mps 705 mmHg 31%
    12:00 +32°C° 0 mm 2 mps 705 mmHg 29%
    13:00 +34°C° 0 mm 3 mps 705 mmHg 27%
    14:00 +33°C° 0 mm 3 mps 705 mmHg 28%
    15:00 +33°C° 0 mm 3 mps 705 mmHg 29%
    16:00 +33°C° 0 mm 3 mps 705 mmHg 29%
    17:00 +30°C° 0 mm 3 mps 704 mmHg 33%
    18:00 +29°C° 0 mm 2 mps 704 mmHg 37%
    19:00 +27°C° 0 mm 2 mps 704 mmHg 40%
    20:00 +26°C° 0 mm 1 mps 704 mmHg 42%
    21:00 +25°C° 0 mm 1 mps 704 mmHg 44%
    22:00 +23°C° 0 mm 1 mps 704 mmHg 46%
    23:00 +23°C° 0 mm 1 mps 703 mmHg 49%
    Show more